Location: *
(51.1248°S, 108.4023°W)
Time: 19:44:56
(UTC+00:00)

USA 281 - Pass Details

Date: 22 October 2021
Orbit: 1078 x 1081 km, 106.0° (Epoch: 25 November)

Event Time Altitude Azimuth Distance (km) Brightness Sun altitude
Exits shadow 03:12:56 - 15° (NNE) 3,514 5.5 -11.1°
Reaches altitude 10° 03:14:31 10° 13° (NNE) 2,926 5.1 -11.3°
Maximum altitude 03:21:01 61° 293° (WNW) 1,225 3.7 -12.1°
Drops below altitude 10° 03:27:37 10° 212° (SSW) 2,958 6.7 -12.9°
Sets 03:30:12 0° 208° (SSW) 3,920 7.4 -13.3°
